EJU79TX LIMC-EDDL

Flight info

Callsign EJU79TX
Flight time N/A
Altitude 32000
Route AOSTA DCT ORSUD DCT MOLUS DCT GILIR DCT PENDU DCT IXILU DCT GIVOR DCT SORAL DCT IBERA N853 ARCKY T853 NVO T857 BIKMU BIKMU1A
Aircraft A320/M-SDE3FGHIRWY/LB1

Departure

Time 2026-05-07 05:07
Airport Milan Malpensa International Airport (LIMC)

Arrival

Time N/A
Airport Düsseldorf Airport (EDDL)
Time Latitude Longitude Altitude Speed Heading
2026-05-07 04:49 45.64563 8.72211 736 ft 0 kts 79°
2026-05-07 04:56 45.64561 8.72199 736 ft 4 kts 81°
2026-05-07 04:57 45.64559 8.72161 736 ft 4 kts 94°
2026-05-07 04:57 45.64564 8.72123 736 ft 4 kts 116°
2026-05-07 04:57 45.64579 8.72098 736 ft 3 kts 166°
2026-05-07 04:57 45.64582 8.72097 736 ft 0 kts 169°
2026-05-07 05:00 45.64549 8.72105 735 ft 9 kts 169°
2026-05-07 05:00 45.64462 8.72141 736 ft 17 kts 148°
2026-05-07 05:00 45.64429 8.72189 736 ft 0 kts 125°
2026-05-07 05:00 45.64419 8.72225 736 ft 8 kts 89°
2026-05-07 05:01 45.64437 8.72339 736 ft 15 kts 79°
2026-05-07 05:01 45.64397 8.72426 736 ft 11 kts 162°
2026-05-07 05:01 45.64301 8.72458 736 ft 17 kts 170°
2026-05-07 05:01 45.64162 8.72498 736 ft 23 kts 168°
2026-05-07 05:02 45.63988 8.72555 735 ft 27 kts 168°
2026-05-07 05:02 45.63805 8.72607 736 ft 27 kts 169°
2026-05-07 05:02 45.63623 8.72657 736 ft 27 kts 169°
2026-05-07 05:02 45.63443 8.72707 736 ft 26 kts 169°
2026-05-07 05:03 45.63262 8.72756 736 ft 26 kts 168°
2026-05-07 05:03 45.63083 8.72807 736 ft 26 kts 169°
2026-05-07 05:03 45.62903 8.72854 735 ft 26 kts 169°
2026-05-07 05:03 45.62726 8.72903 737 ft 26 kts 169°
2026-05-07 05:04 45.62548 8.72950 737 ft 26 kts 168°
2026-05-07 05:04 45.62370 8.73003 736 ft 26 kts 169°
2026-05-07 05:04 45.62192 8.73050 737 ft 26 kts 169°
2026-05-07 05:04 45.62016 8.73098 737 ft 26 kts 168°
2026-05-07 05:05 45.61841 8.73148 736 ft 25 kts 169°
2026-05-07 05:05 45.61704 8.73283 737 ft 25 kts 124°
2026-05-07 05:05 45.61611 8.73482 736 ft 20 kts 123°
2026-05-07 05:05 45.61592 8.73662 737 ft 17 kts 85°
2026-05-07 05:06 45.61614 8.73738 737 ft 2 kts 359°
2026-05-07 05:06 45.61619 8.73736 737 ft 0 kts 348°
2026-05-07 05:06 45.61658 8.73725 736 ft 25 kts 348°
2026-05-07 05:07 45.62096 8.73602 737 ft 99 kts 348°
2026-05-07 05:07 45.62967 8.73363 736 ft 154 kts 349°
2026-05-07 05:07 45.64089 8.73036 1180 ft 166 kts 349°
2026-05-07 05:07 45.65243 8.73155 1836 ft 172 kts 26°
2026-05-07 05:08 45.66207 8.74343 2216 ft 195 kts 45°
2026-05-07 05:08 45.67177 8.75791 2768 ft 206 kts 45°
2026-05-07 05:08 45.68180 8.77269 3533 ft 208 kts 45°
2026-05-07 05:08 45.69203 8.78762 4302 ft 212 kts 45°
2026-05-07 05:09 45.70248 8.80282 5082 ft 215 kts 45°
2026-05-07 05:09 45.71309 8.81812 5830 ft 218 kts 45°
2026-05-07 05:09 45.72263 8.83575 6333 ft 235 kts 64°
2026-05-07 05:09 45.72705 8.85865 6944 ft 244 kts 87°
2026-05-07 05:10 45.72501 8.88281 7709 ft 247 kts 110°
2026-05-07 05:10 45.71660 8.90418 8489 ft 249 kts 133°
2026-05-07 05:10 45.71249 8.91009 8760 ft 249 kts 141°